Hourly Weather Punakha

Today, 13 July, Monday

Time Temperature Precipitation Wind Pressure Humidity
00:00 +18°C° 0 mm 0 mps 583 mmHg 97%
01:00 +18°C° 0.2 mm 0 mps 583 mmHg 97%
02:00 +17°C° 0.2 mm 0 mps 583 mmHg 97%
03:00 +17°C° 0.2 mm 0 mps 582 mmHg 98%
04:00 +17°C° 0.1 mm 0 mps 582 mmHg 97%
05:00 +17°C° 0.1 mm 0 mps 582 mmHg 96%
06:00 +18°C° 0.1 mm 0 mps 583 mmHg 96%
07:00 +19°C° 0 mm 0 mps 583 mmHg 90%
08:00 +23°C° 0 mm 1 mps 584 mmHg 85%
09:00 +24°C° 0 mm 1 mps 584 mmHg 79%
10:00 +25°C° 0.2 mm 2 mps 584 mmHg 74%
11:00 +26°C° 0.2 mm 2 mps 585 mmHg 69%
12:00 +28°C° 0.2 mm 2 mps 585 mmHg 64%
13:00 +27°C° 0.5 mm 2 mps 584 mmHg 69%
14:00 +27°C° 0.5 mm 3 mps 584 mmHg 73%
15:00 +26°C° 0.5 mm 3 mps 583 mmHg 77%
16:00 +25°C° 0.6 mm 2 mps 582 mmHg 83%
17:00 +23°C° 0.6 mm 2 mps 582 mmHg 89%
18:00 +21°C° 0.6 mm 2 mps 581 mmHg 94%
19:00 +21°C° 0.4 mm 1 mps 582 mmHg 95%
20:00 +21°C° 0.4 mm 1 mps 582 mmHg 96%
21:00 +18°C° 0.4 mm 0 mps 583 mmHg 97%
22:00 +18°C° 0.4 mm 0 mps 583 mmHg 97%
23:00 +18°C° 0.4 mm 0 mps 583 mmHg 96%

Tomorrow, 14 July, Tuesday

Time Temperature Precipitation Wind Pressure Humidity
00:00 +18°C° 0.4 mm 0 mps 583 mmHg 95%
01:00 +18°C° 0.1 mm 0 mps 583 mmHg 94%
02:00 +18°C° 0.1 mm 0 mps 583 mmHg 93%
03:00 +18°C° 0.1 mm 0 mps 583 mmHg 92%
04:00 +18°C° 0.1 mm 0 mps 583 mmHg 92%
05:00 +18°C° 0.1 mm 0 mps 583 mmHg 91%
06:00 +18°C° 0.1 mm 0 mps 584 mmHg 91%
07:00 +20°C° 0.1 mm 0 mps 585 mmHg 86%
08:00 +23°C° 0.1 mm 1 mps 585 mmHg 81%
09:00 +25°C° 0.1 mm 1 mps 586 mmHg 75%
10:00 +25°C° 0.4 mm 2 mps 586 mmHg 76%
11:00 +25°C° 0.4 mm 2 mps 586 mmHg 77%
12:00 +26°C° 0.4 mm 3 mps 586 mmHg 78%
13:00 +25°C° 0.8 mm 2 mps 585 mmHg 83%
14:00 +24°C° 0.8 mm 2 mps 584 mmHg 88%
15:00 +23°C° 0.8 mm 2 mps 583 mmHg 93%
16:00 +21°C° 0.5 mm 2 mps 583 mmHg 95%
17:00 +22°C° 0.5 mm 1 mps 583 mmHg 96%
18:00 +21°C° 0.5 mm 1 mps 583 mmHg 97%
19:00 +21°C° 0.2 mm 1 mps 583 mmHg 98%
20:00 +21°C° 0.2 mm 1 mps 583 mmHg 98%
21:00 +18°C° 0.2 mm 0 mps 584 mmHg 98%
22:00 +18°C° 0.2 mm 0 mps 584 mmHg 98%
23:00 +18°C° 0.2 mm 0 mps 584 mmHg 98%

Day after tomorrow, 15 July, Wednesday

Time Temperature Precipitation Wind Pressure Humidity
00:00 +18°C° 0.2 mm 0 mps 584 mmHg 98%
01:00 +18°C° 0.3 mm 0 mps 584 mmHg 98%
02:00 +18°C° 0.3 mm 0 mps 584 mmHg 98%
03:00 +18°C° 0.3 mm 0 mps 584 mmHg 98%
04:00 +18°C° 0.4 mm 0 mps 584 mmHg 97%
05:00 +18°C° 0.4 mm 0 mps 584 mmHg 97%
06:00 +18°C° 0.4 mm 0 mps 584 mmHg 97%
07:00 +18°C° 0.3 mm 0 mps 584 mmHg 96%
08:00 +19°C° 0.3 mm 0 mps 585 mmHg 96%
09:00 +21°C° 0.3 mm 1 mps 585 mmHg 95%
10:00 +21°C° 0.3 mm 1 mps 585 mmHg 93%
11:00 +22°C° 0.3 mm 1 mps 585 mmHg 92%
12:00 +22°C° 0.3 mm 1 mps 585 mmHg 90%
13:00 +23°C° 0.4 mm 1 mps 584 mmHg 90%
14:00 +23°C° 0.4 mm 1 mps 584 mmHg 89%
15:00 +23°C° 0.4 mm 1 mps 583 mmHg 88%
16:00 +23°C° 0.2 mm 1 mps 583 mmHg 89%
17:00 +23°C° 0.2 mm 1 mps 582 mmHg 90%
18:00 +22°C° 0.2 mm 1 mps 582 mmHg 90%
19:00 +22°C° 0 mm 1 mps 582 mmHg 92%
20:00 +19°C° 0 mm 0 mps 583 mmHg 94%
21:00 +18°C° 0 mm 0 mps 583 mmHg 96%
22:00 +18°C° 0.1 mm 0 mps 583 mmHg 97%
23:00 +18°C° 0.1 mm 0 mps 583 mmHg 97%

16 July, Thursday

Time Temperature Precipitation Wind Pressure Humidity
00:00 +18°C° 0.1 mm 0 mps 584 mmHg 97%
01:00 +18°C° 0.4 mm 0 mps 583 mmHg 97%
02:00 +18°C° 0.4 mm 0 mps 583 mmHg 97%
03:00 +18°C° 0.4 mm 0 mps 583 mmHg 97%
04:00 +18°C° 0.3 mm 0 mps 583 mmHg 97%
05:00 +18°C° 0.3 mm 0 mps 583 mmHg 96%
06:00 +18°C° 0.3 mm 0 mps 584 mmHg 95%
07:00 +21°C° 0.1 mm 1 mps 584 mmHg 92%
08:00 +22°C° 0.1 mm 1 mps 585 mmHg 89%
09:00 +23°C° 0.1 mm 1 mps 585 mmHg 86%
10:00 +24°C° 0.3 mm 1 mps 585 mmHg 83%
11:00 +24°C° 0.3 mm 2 mps 585 mmHg 80%
12:00 +25°C° 0.3 mm 2 mps 585 mmHg 77%
13:00 +25°C° 0.5 mm 2 mps 585 mmHg 78%
14:00 +25°C° 0.5 mm 2 mps 584 mmHg 79%
15:00 +25°C° 0.5 mm 2 mps 584 mmHg 79%
16:00 +24°C° 0.6 mm 1 mps 583 mmHg 84%
17:00 +23°C° 0.6 mm 1 mps 583 mmHg 89%
18:00 +22°C° 0.6 mm 1 mps 582 mmHg 94%
19:00 +22°C° 0.3 mm 1 mps 583 mmHg 95%
20:00 +21°C° 0.3 mm 1 mps 583 mmHg 96%
21:00 +19°C° 0.3 mm 0 mps 584 mmHg 98%
22:00 +19°C° 0.4 mm 0 mps 584 mmHg 98%
23:00 +19°C° 0.4 mm 0 mps 584 mmHg 98%

17 July, Friday

Time Temperature Precipitation Wind Pressure Humidity
00:00 +20°C° 0.4 mm 1 mps 584 mmHg 98%
01:00 +20°C° 0.7 mm 1 mps 583 mmHg 97%
02:00 +18°C° 0.7 mm 0 mps 583 mmHg 97%
03:00 +18°C° 0.7 mm 0 mps 583 mmHg 97%
04:00 +18°C° 0.3 mm 0 mps 583 mmHg 96%
05:00 +18°C° 0.3 mm 0 mps 583 mmHg 96%
06:00 +18°C° 0.3 mm 0 mps 583 mmHg 95%
07:00 +19°C° 0.1 mm 0 mps 584 mmHg 92%
08:00 +22°C° 0.1 mm 1 mps 585 mmHg 90%
09:00 +23°C° 0.1 mm 1 mps 585 mmHg 87%
10:00 +24°C° 0.2 mm 1 mps 585 mmHg 81%
11:00 +26°C° 0.2 mm 2 mps 585 mmHg 75%
12:00 +27°C° 0.2 mm 2 mps 585 mmHg 69%
13:00 +26°C° 0.5 mm 2 mps 585 mmHg 74%
14:00 +26°C° 0.5 mm 2 mps 584 mmHg 78%
15:00 +25°C° 0.5 mm 2 mps 583 mmHg 82%
16:00 +24°C° 0.6 mm 2 mps 582 mmHg 86%
17:00 +23°C° 0.6 mm 2 mps 582 mmHg 91%
18:00 +23°C° 0.6 mm 1 mps 581 mmHg 95%
19:00 +22°C° 0.3 mm 1 mps 581 mmHg 96%
20:00 +22°C° 0.3 mm 1 mps 582 mmHg 97%
21:00 +19°C° 0.3 mm 0 mps 582 mmHg 98%
22:00 +19°C° 0.4 mm 0 mps 582 mmHg 98%
23:00 +21°C° 0.4 mm 1 mps 582 mmHg 98%

18 July, Saturday

Time Temperature Precipitation Wind Pressure Humidity
00:00 +21°C° 0.4 mm 1 mps 582 mmHg 98%
01:00 +21°C° 0.6 mm 1 mps 582 mmHg 98%
02:00 +21°C° 0.6 mm 1 mps 582 mmHg 98%
03:00 +18°C° 0.6 mm 0 mps 582 mmHg 98%
04:00 +18°C° 0.3 mm 0 mps 582 mmHg 97%
05:00 +18°C° 0.3 mm 0 mps 582 mmHg 97%
06:00 +18°C° 0.3 mm 0 mps 583 mmHg 96%
07:00 +19°C° 0.2 mm 0 mps 583 mmHg 96%
08:00 +19°C° 0.2 mm 0 mps 583 mmHg 96%
09:00 +21°C° 0.2 mm 1 mps 584 mmHg 96%
10:00 +21°C° 0.3 mm 1 mps 584 mmHg 96%
11:00 +22°C° 0.3 mm 1 mps 584 mmHg 96%
12:00 +22°C° 0.3 mm 1 mps 583 mmHg 96%
13:00 +22°C° 0.3 mm 1 mps 583 mmHg 95%
14:00 +22°C° 0.3 mm 1 mps 582 mmHg 95%
15:00 +22°C° 0.3 mm 1 mps 582 mmHg 95%
16:00 +22°C° 0.3 mm 1 mps 582 mmHg 95%
17:00 +22°C° 0.3 mm 1 mps 581 mmHg 95%
18:00 +22°C° 0.3 mm 1 mps 581 mmHg 96%
19:00 +21°C° 0.3 mm 1 mps 582 mmHg 96%
20:00 +21°C° 0.3 mm 1 mps 582 mmHg 97%
21:00 +21°C° 0.3 mm 1 mps 583 mmHg 97%
22:00 +20°C° 0.7 mm 1 mps 583 mmHg 97%
23:00 +18°C° 0.7 mm 0 mps 583 mmHg 98%
Show more